Theta_e
291 292 293 295 295 297 295 314 320 321 321 318 316 316 316 317 316 317 316 314 309 302 297 301 303 305 307 308 309 308 304 300 298 296 294 294 296 299 300 300 298 299 301
283 285 287 289 288 289 289 292 304 320 320 318 317 316 318 316 316 315 315 313 308 305 301 301 303 304 306 306 306 304 301 300 304 303 300 294 294 294 295 296 295 294 295
278 280 281 283 284 285 286 289 292 296 318 318 317 315 316 315 312 311 311 311 308 305 303 302 305 307 306 304 304 304 303 303 300 302 302 298 297 291 293 293 293 293 293
278 278 279 280 282 283 285 287 290 294 306 317 314 314 311 309 311 310 310 308 307 305 303 302 303 306 308 306 307 306 306 302 299 295 295 297 296 293 286 290 292 293 292
277 277 278 279 281 282 283 285 287 292 304 315 312 310 311 312 311 310 307 305 304 302 301 301 301 303 305 307 307 306 306 302 299 295 294 293 295 295 290 285 287 290 292
276 277 278 278 280 281 282 283 284 287 290 311 311 309 310 311 309 308 303 301 301 300 300 300 300 301 303 304 304 304 304 300 298 295 295 293 293 292 293 290 287 287 289
275 275 275 276 277 278 280 281 282 283 286 290 308 309 311 310 309 308 303 299 297 298 298 299 299 299 301 302 300 299 299 297 296 295 294 295 295 295 295 291 289 288 288
273 273 274 275 275 276 278 279 280 281 283 286 291 300 308 306 303 304 303 300 297 295 296 299 299 298 299 299 299 299 298 295 294 292 293 292 293 294 294 292 290 286 286
271 271 273 274 275 275 275 277 278 280 281 283 286 289 295 300 300 300 301 301 299 296 296 295 294 295 296 296 296 294 294 295 295 294 293 292 291 293 293 294 294 291 285
269 270 271 272 273 274 275 276 276 278 280 282 283 285 287 292 296 299 298 296 296 294 294 292 293 292 291 291 291 290 292 292 291 289 289 288 289 289 290 288 288 290 290
267 268 269 271 271 273 273 274 274 275 277 281 281 282 284 286 289 291 296 296 293 294 291 291 290 291 290 291 289 289 288 287 286 287 288 286 287 287 288 288 287 287 288
267 268 269 269 270 269 271 272 273 273 275 278 281 281 282 283 284 285 288 292 292 293 291 291 290 289 288 289 288 287 287 286 285 285 285 285 286 286 288 287 285 286 286
267 267 267 268 268 268 269 270 271 272 274 276 278 280 281 282 283 284 285 287 289 290 291 289 288 288 287 287 287 286 286 285 285 285 284 285 285 286 288 288 287 287 287
266 266 266 266 266 267 268 269 270 271 272 274 274 276 280 282 283 284 284 285 285 287 288 288 288 287 287 286 286 286 285 285 285 285 286 288 288 288 287 289 288 289 287
264 265 265 265 265 265 266 268 269 270 271 272 272 273 277 281 283 283 284 284 285 285 285 285 286 287 287 287 286 286 286 286 286 286 286 287 289 290 289 287 286 287 287
263 264 264 265 265 264 265 267 267 268 270 270 270 272 274 277 280 282 283 284 284 285 285 285 285 285 287 291 291 289 286 286 286 285 286 287 288 289 289 289 289 289 286
262 263 263 263 264 264 265 265 266 268 267 268 270 271 272 274 276 279 281 283 284 285 284 285 285 286 287 292 292 290 286 286 286 285 285 285 286 287 286 288 288 288 289
261 261 263 262 263 264 264 265 266 266 266 266 268 270 271 273 274 277 278 281 282 283 284 285 285 286 288 292 292 290 285 285 285 285 285 285 285 286 286 285 285 286 287
261 261 263 262 263 263 264 264 264 265 265 264 266 268 270 271 272 274 276 278 281 281 282 284 284 285 287 291 290 286 285 284 284 285 285 286 286 289 289 286 285 284 285
262 261 262 263 262 263 264 263 263 263 263 264 266 269 270 271 271 273 275 276 279 280 281 281 282 286 284 289 288 286 284 283 283 284 285 288 287 290 288 285 284 282 283
262 263 262 261 262 263 263 261 262 262 263 264 266 268 269 271 271 272 274 275 277 279 279 280 281 282 284 286 288 287 284 283 283 283 283 284 287 288 288 287 284 283 284
262 262 262 262 263 263 263 260 260 263 263 263 264 266 268 271 271 272 272 274 275 277 277 279 279 280 282 285 288 288 286 286 284 283 283 285 287 288 289 286 287 286 285
262 263 262 262 263 264 263 260 261 262 261 262 262 264 266 270 270 271 271 271 273 274 276 277 278 279 280 281 285 287 287 286 284 284 285 286 287 288 288 287 287 287 284
262 263 263 262 262 263 263 262 262 262 260 260 262 264 265 268 268 270 271 271 271 272 274 275 276 277 278 280 281 282 283 286 284 285 285 285 286 287 287 285 286 284 283
263 263 262 262 261 262 262 263 263 261 259 260 262 262 264 265 266 268 269 270 273 274 274 275 276 276 276 278 279 280 281 284 284 283 283 283 284 284 283 283 282 282 282
262 262 262 261 261 261 261 262 262 260 258 258 260 260 263 264 265 266 267 273 274 276 277 277 278 278 280 281 280 280 281 283 285 283 281 282 282 282 281 281 281 280 280
Wind_Speed
21 22 22 22 23 19 18 14 11 10 9 9 8 8 8 8 8 8 13 13 13 14 11 8 9 7 7 7 9 10 14 10 11 9 9 8 7 7 6 6 6 7 7
21 21 22 21 20 20 19 18 15 13 9 10 9 6 8 8 8 8 11 12 13 13 13 12 10 10 9 9 10 12 10 8 8 7 6 4 4 4 5 4 5 6 5
22 23 23 22 20 20 20 18 17 17 10 12 9 6 8 7 8 9 9 10 12 11 11 12 11 11 9 9 10 12 14 9 1 6 3 4 4 6 2 3 3 5 5
22 21 23 22 21 20 19 18 17 16 13 13 12 16 12 13 10 9 9 9 12 12 11 12 11 11 9 11 10 10 9 9 8 4 3 3 8 4 5 1 3 2 5
21 22 21 21 19 19 18 18 18 16 15 14 13 13 14 10 10 9 14 11 11 11 12 12 13 12 9 10 11 12 9 8 7 4 4 4 3 5 4 5 4 2 3
22 21 20 20 19 19 19 18 20 18 20 10 14 16 17 16 12 12 11 9 9 9 11 11 11 11 10 11 9 7 8 7 7 6 5 6 4 5 3 4 7 6 4
21 21 22 22 22 23 22 19 20 19 19 17 10 14 13 18 19 15 12 13 9 9 12 12 12 9 10 11 10 9 8 7 8 8 5 3 3 3 5 8 5 5 3
21 22 22 21 21 22 22 22 21 19 19 17 14 7 9 9 11 15 13 10 11 10 9 11 12 12 12 10 10 9 8 8 6 6 5 5 4 3 4 5 9 4 3
21 22 22 21 21 21 22 22 22 19 18 17 13 11 8 2 7 15 12 10 11 9 12 10 9 11 12 10 10 8 9 7 5 7 6 6 3 4 4 4 2 5 4
22 20 20 21 20 20 19 21 22 20 18 17 13 11 10 8 5 5 14 14 11 11 12 12 11 10 9 12 8 8 9 11 6 5 7 7 4 5 4 4 4 3 2
18 18 18 19 19 19 20 21 21 22 20 16 15 13 13 11 9 6 2 10 14 14 12 10 11 10 10 11 10 9 10 10 9 7 9 8 7 4 5 4 3 4 4
17 17 18 19 20 21 21 21 21 20 20 18 15 14 13 12 12 8 7 1 10 13 12 12 12 10 10 9 11 11 9 11 10 9 9 9 7 7 5 4 5 4 5
17 17 18 19 19 20 21 20 20 20 19 18 17 15 14 12 10 11 9 7 7 10 12 13 12 12 11 11 10 11 10 10 11 10 9 9 10 7 5 5 4 4 3
16 17 16 18 19 19 20 20 19 19 19 18 18 18 15 14 13 11 10 8 8 9 11 11 10 11 10 11 11 11 12 11 10 9 10 8 7 7 6 4 3 3 4
18 17 18 17 18 19 19 19 19 20 19 18 18 18 17 14 12 11 10 12 9 8 6 11 8 9 10 8 11 11 11 11 10 8 8 6 7 11 8 5 4 3 3
18 18 18 19 18 18 17 18 19 19 17 17 18 18 16 17 13 12 11 11 8 7 8 9 7 7 6 19 18 12 9 9 9 8 8 7 10 10 12 11 11 6 3
16 17 17 16 15 16 16 17 17 16 17 17 18 17 17 16 16 14 12 11 8 7 8 7 7 6 7 18 18 17 8 8 8 9 8 8 8 11 8 12 14 12 11
15 15 14 14 14 14 15 14 14 15 16 17 17 17 18 17 17 15 14 11 7 9 6 6 6 5 6 15 18 17 10 9 8 7 6 7 8 10 11 10 7 7 7
10 11 11 12 13 13 14 13 13 13 14 16 17 17 16 16 15 15 14 12 10 9 9 8 10 5 8 17 18 13 8 8 8 6 6 7 8 16 17 8 8 9 8
8 9 9 10 10 12 12 13 13 14 15 15 14 14 15 13 14 14 13 11 9 9 8 9 8 13 6 16 15 10 6 8 6 5 5 14 10 17 15 7 7 8 8
9 8 7 8 9 9 10 11 12 13 13 13 13 13 14 13 13 12 11 11 10 9 8 7 7 9 10 8 15 14 6 6 5 5 5 5 13 13 15 13 6 7 8
9 8 7 6 6 8 8 9 10 11 12 13 13 13 13 10 10 10 10 10 9 7 7 5 5 6 6 9 9 12 11 12 5 6 5 6 14 13 16 12 13 14 12
9 8 8 8 7 8 8 8 10 11 12 12 12 12 12 11 11 9 9 7 8 7 6 5 4 4 4 4 8 9 11 13 6 4 9 11 13 16 12 16 16 14 5
8 7 8 9 10 10 10 8 8 9 10 11 11 11 11 11 10 8 7 6 6 6 6 6 5 4 3 2 2 2 1 8 6 8 7 8 10 8 9 8 7 5 6
8 8 8 9 9 9 10 10 9 7 8 8 8 8 8 8 8 8 7 6 5 6 7 5 2 2 1 2 2 1 1 1 6 7 4 4 4 5 6 6 6 5 4
9 8 9 9 10 10 10 10 9 7 6 8 7 8 7 7 7 7 8 12 14 15 13 13 11 7 5 5 3 3 3 3 5 3 4 5 5 4 6 6 5 4 6
Wind_Direction
2 5 0 358 352 353 358 319 185 200 173 164 159 154 170 158 161 156 152 156 149 140 129 130 131 123 124 119 123 115 120 115 124 114 91 72 75 85 88 94 96 94 93
2 360 358 356 355 346 344 335 331 191 197 167 167 166 170 163 156 148 158 157 154 149 144 144 145 140 133 132 139 137 128 130 185 121 111 119 93 59 63 74 104 103 101
4 1 359 355 352 348 342 334 324 317 191 173 160 165 154 159 156 163 160 157 157 157 149 154 153 154 146 150 148 144 145 153 67 114 102 141 150 126 93 96 110 119 112
5 3 360 356 351 345 338 333 326 316 280 181 168 171 173 171 171 166 159 161 160 162 159 155 157 154 155 155 160 148 149 149 148 86 57 47 123 151 149 167 130 134 128
5 2 358 353 350 348 345 339 333 324 302 186 173 176 174 175 164 162 163 164 160 163 163 162 156 158 157 158 157 156 158 161 145 134 144 111 90 126 146 143 157 135 124
3 3 359 356 351 354 354 349 346 342 342 206 179 191 184 170 168 168 163 166 162 160 166 168 160 159 154 155 153 151 156 146 157 134 152 154 159 169 143 121 145 137 156
4 3 1 358 355 355 356 353 353 348 345 345 200 195 213 173 169 172 167 162 163 169 167 168 162 161 157 154 148 150 139 151 155 156 141 87 63 115 106 119 120 130 126
6 6 2 358 356 356 354 354 354 352 349 349 346 322 206 186 166 172 170 172 167 166 160 163 166 157 155 149 147 152 148 144 131 118 100 107 91 99 124 133 142 110 134
5 3 0 360 357 358 356 355 352 355 354 354 353 3 16 281 193 170 169 169 161 149 153 155 142 140 141 143 147 145 138 124 122 118 120 109 89 77 61 76 152 138 147
3 0 2 359 355 359 358 357 358 354 357 358 2 357 10 28 351 213 173 159 140 146 147 144 144 144 142 133 130 125 126 127 126 114 111 96 91 75 58 65 64 42 94
1 359 0 359 357 358 3 2 359 356 356 1 4 2 21 26 32 22 256 161 142 150 140 141 133 145 136 131 124 121 117 116 117 116 117 104 102 94 90 76 73 64 58
2 359 359 1 2 360 2 3 360 357 356 355 8 9 19 28 40 41 24 202 138 143 146 143 134 132 128 137 136 133 133 128 122 114 117 115 109 91 92 84 75 74 42
2 359 1 3 3 358 1 1 0 358 357 356 6 12 18 25 32 39 39 46 80 116 128 124 135 130 133 132 124 125 127 124 124 124 119 117 115 111 112 99 93 84 93
3 2 2 0 1 360 357 359 355 0 359 360 8 9 7 16 27 32 34 46 49 74 85 98 106 111 114 116 121 126 120 117 113 109 119 119 120 118 88 94 127 132 109
3 4 0 0 0 357 354 352 357 360 359 2 7 4 9 11 19 35 37 45 40 56 78 89 89 100 104 112 116 114 116 114 111 104 107 113 117 120 137 135 130 132 117
358 357 360 357 0 355 347 348 356 357 358 3 3 7 2 18 8 25 41 50 47 54 69 77 99 102 116 140 129 116 113 111 128 127 117 117 121 131 147 158 138 122 103
351 350 358 353 351 351 350 349 353 346 1 5 2 1 3 12 11 17 29 46 44 63 72 87 89 101 134 144 135 125 118 119 118 124 125 133 140 141 135 128 123 115 114
345 343 350 344 347 348 352 344 352 354 3 360 1 0 4 7 11 12 21 27 31 43 57 83 114 113 118 129 129 116 106 106 107 117 129 133 145 149 142 134 131 128 117
339 331 344 338 339 349 348 346 356 359 2 2 356 355 360 7 6 11 12 11 29 42 40 43 54 61 121 119 112 106 103 113 120 129 137 141 136 151 137 126 128 111 102
335 323 342 334 336 342 344 352 357 358 3 358 349 352 353 3 6 0 12 7 11 34 41 43 33 56 48 122 119 111 113 117 122 124 148 151 155 153 140 135 134 136 137
329 327 332 336 335 344 348 355 349 358 352 347 348 354 359 355 5 360 4 13 7 20 31 45 41 38 32 124 134 127 118 122 127 130 141 156 160 167 154 149 148 147 140
326 330 328 334 333 349 350 355 352 349 346 345 350 352 359 358 357 6 5 12 10 19 27 30 45 36 23 35 114 144 148 152 148 153 154 159 170 167 155 146 154 152 139
322 324 328 325 335 357 357 355 343 351 345 347 350 349 350 1 354 358 16 13 9 15 19 18 43 60 33 21 36 132 152 150 146 137 148 165 175 174 175 157 158 153 140
308 316 313 327 331 343 345 350 352 355 343 346 345 348 343 357 354 349 8 12 12 5 10 12 26 19 14 32 28 31 50 165 140 149 147 165 165 147 154 140 140 141 140
309 313 315 318 324 332 333 341 350 1 346 338 338 348 339 344 340 347 341 1 357 343 349 343 328 333 329 4 325 336 355 64 158 152 157 147 123 135 120 119 119 116 133
294 293 308 315 319 322 326 330 341 349 342 334 344 331 337 344 344 339 340 356 353 348 351 346 353 351 311 297 279 250 229 228 191 145 158 161 154 148 136 134 141 148 148